[[{"header":{"parameterUnit":"m.s-1","parameterCategory":1,"la1":30.2991,"la2":30.254,"lo1":-89.0895,"lo2":-89.0444,"dy":0.0017,"dx":0.0017,"nx":28,"ny":28,"refTime":"2024-05-10T03:00:00:Z","depth":0,"parameterNumber":2,"parameterNumberName":"U-component_of_WINDS"},"data":[0,0,0,0,0,0,0,0,0,0,0,0,0,0,0,0,0,0,0,0,0,0,0,0,0,0,0,0,0,0,0,0,0,0,0,0,0,0,0,0,0,0,0,0,0,0,0,0,0,0,0,0,0,0,0,0,0,0,0.822,0.8221,0,0.8309,0.831,0.8311,0.836,0.8361,0.8361,0.8361,0.8451,0.8453,0.8455,0,0,0,0,0,0,0,0,0,0,0,0,0,0.8094,0.8096,0.822,0.8221,0.8223,0.8308,0.831,0.8311,0.836,0.8361,0.8361,0.8361,0.845,0.8453,0.8455,0,0,0,0,0,0,0,0,0,0,0,0,0,0.8162,0.8097,0.822,0.8258,0.8262,0.8308,0.831,0.8311,0.836,0.8361,0.8361,0.8361,0.8449,0.8452,0.8456,0.8471,0,0,0.8466,0.8467,0,0,0,0,0,0,0,0,0.8158,0.8167,0.8251,0.8255,0.826,0.8324,0.8298,0.8365,0.836,0.8323,0.8361,0.8361,0.8408,0.8415,0.8431,0.8476,0.8479,0.8466,0.8468,0.847,0.8471,0,0,0,0,0,0,0,0.8153,0.8163,0.8255,0.8252,0.8258,0.827,0.828,0.8311,0.8363,0.8326,0.833,0.834,0.8411,0.8428,0.8433,0.8481,0.8466,0.8469,0.8471,0.8472,0.8542,0.8542,0,0,0,0,0,0,0.8143,0.8159,0.8252,0.8258,0.8209,0.8272,0.8283,0.8303,0.8363,0.8372,0.8339,0.8342,0.8422,0.8429,0.8437,0.8459,0.847,0.8473,0.8475,0.8543,0.8542,0.8542,0,0,0,0,0,0,0.814,0.8151,0.8249,0.821,0.8223,0.8274,0.8296,0.8305,0.8322,0.8373,0.8382,0.8347,0.8422,0.8432,0.8462,0.8463,0.8474,0.8477,0.8543,0.8543,0.8542,0.8503,0,0,0,0,0,0,0.8136,0.8149,0.8156,0.8209,0.8225,0.8273,0.8296,0.8306,0.8327,0.8331,0.8383,0.8391,0.8423,0.8457,0.8466,0.8467,0.848,0.8543,0.8543,0.8542,0.8504,0.8501,0.8499,0,0,0,0,0,0.8131,0.8141,0.8156,0.8167,0.8234,0.8273,0.8282,0.8318,0.8327,0.8334,0.8367,0.839,0.8461,0.846,0.847,0.8473,0.8543,0.8543,0.8542,0.8506,0.8502,0.8499,0,0,0,0,0,0,0.8086,0.8149,0.8166,0.8194,0.8228,0.8281,0.8291,0.8313,0.8345,0.8347,0.8391,0.8403,0.8428,0.8454,0.8451,0.8491,0.8505,0.8506,0.8473,0.847,0.8467,0.846,0.8483,0,0,0,0,0,0.808,0.8106,0.8159,0.8178,0.8195,0.824,0.8258,0.8283,0.832,0.8335,0.837,0.8405,0.8435,0.8454,0.8485,0.8509,0.852,0.8515,0.8512,0.851,0.8511,0.8524,0.8523,0.8541,0.8541,0.8541,0,0,0.8066,0.8103,0.8117,0.817,0.82,0.8226,0.8252,0.8278,0.8298,0.8339,0.8369,0.8396,0.8438,0.8465,0.8479,0.8487,0.8508,0.851,0.8507,0.8509,0.8524,0.8522,0.8521,0.8541,0.8541,0.8541,0,0,0.8054,0.8085,0.8105,0.8134,0.8178,0.8208,0.8212,0.8263,0.8282,0.8314,0.8345,0.8369,0.8421,0.8449,0.847,0.8469,0.8491,0.8478,0.8463,0.8476,0.8474,0.8473,0.8472,0.8472,0.8479,0.8479,0.8478,0,0.8031,0.8072,0.8112,0.8136,0.8158,0.8197,0.8217,0.8243,0.8294,0.8309,0.8317,0.8383,0.8414,0.8447,0.8447,0.8463,0.8469,0.8472,0.8471,0.8471,0.847,0.847,0.8469,0.8477,0.8477,0.8477,0.8477,0,0.8042,0.807,0.808,0.8129,0.8152,0.8174,0.8217,0.8236,0.8259,0.8288,0.8319,0.8358,0.8397,0.8407,0.843,0.8444,0.8447,0.8463,0.8478,0.8466,0.8466,0.8466,0.8474,0.8474,0.8475,0.8476,0,0,0.8003,0.8074,0.8077,0.81,0.8152,0.8174,0.8197,0.8236,0.8251,0.8286,0.8306,0.8349,0.8364,0.8388,0.8414,0.8426,0.8422,0.844,0.8442,0.8435,0.8439,0.8426,0.8425,0.8437,0.8437,0.8437,0.8435,0,0.7998,0.8043,0.8079,0.811,0.8136,0.8173,0.8194,0.8227,0.8255,0.8281,0.8312,0.8341,0.8359,0.8373,0.8387,0.8419,0.8423,0.842,0.8456,0.8457,0.8443,0.8425,0.8412,0.8408,0.8436,0.8436,0.8436,0,0.7998,0.8032,0.8065,0.8114,0.8126,0.8144,0.8182,0.8207,0.8245,0.8265,0.8292,0.8319,0.8346,0.8358,0.8395,0.8392,0.8409,0.8427,0.8428,0.8432,0.8445,0.8428,0.8408,0.8407,0.8436,0.8436,0.8436,0,0.7966,0.8019,0.8046,0.8064,0.8122,0.8134,0.8159,0.8198,0.8219,0.8252,0.8266,0.8301,0.8321,0.8348,0.8384,0.839,0.8417,0.8433,0.8433,0.8432,0.8436,0.8436,0.8418,0.8449,0.8449,0.8449,0.8449,0,0.7956,0.7975,0.8032,0.8048,0.807,0.8112,0.8133,0.8161,0.8195,0.8217,0.8252,0.8272,0.8319,0.8345,0.8374,0.8399,0.8408,0.8424,0.8431,0.8421,0.8418,0.8432,0.8432,0.8449,0.8449,0.8449,0.8449,0,0.7923,0.7962,0.7994,0.8047,0.806,0.8074,0.8119,0.8136,0.8166,0.8193,0.8202,0.8249,0.8281,0.832,0.8365,0.8384,0.8407,0.8418,0.8393,0.8398,0.8396,0.8395,0.8385,0.8385,0.8416,0.8416,0.8416,0,0.7914,0.7929,0.7983,0.8001,0.8025,0.8052,0.8074,0.8115,0.8136,0.8182,0.8193,0.8228,0.8258,0.8307,0.8345,0.8379,0.8391,0.8385,0.8397,0.8385,0.839,0.8388,0.839,0.8382,0.8382,0.8381,0.8381,0,0.7893,0.7911,0.7941,0.7978,0.8002,0.8033,0.8065,0.8077,0.8125,0.8147,0.818,0.8203,0.8249,0.8283,0.8322,0.8347,0.8371,0.8377,0.8379,0.8367,0.8352,0.8359,0.8385,0.8377,0.8377,0.8378,0.8378,0.8378,0.7871,0.7886,0.7926,0.7958,0.7987,0.8016,0.8035,0.8067,0.8096,0.8136,0.8159,0.8191,0.823,0.8285,0.831,0.8335,0.8344,0.8347,0.8348,0.8347,0.8344,0.8349,0.8343,0.8343,0.8343,0.8343,0.8343,0,0.7851,0.7879,0.7908,0.7952,0.7977,0.7998,0.8035,0.8054,0.8082,0.8117,0.8145,0.8183,0.8216,0.8257,0.8293,0.8305,0.8317,0.8313,0.8312,0.8317,0.8334,0.8329,0.8303,0.8303,0.8303,0.8303,0.8303,0.8303,0.7843,0.787,0.7893,0.7934,0.7963,0.7995,0.8014,0.8041,0.8068,0.8109,0.8137,0.8163,0.82,0.8239,0.827,0.8281,0.8292,0.8284,0.8298,0.8313,0.8316,0.832,0.8315,0.8286,0.8286,0.8279,0.8279,0.8279]},{"header":{"parameterUnit":"m.s-1","parameterCategory":1,"la1":30.2991,"la2":30.254,"lo1":-89.0895,"lo2":-89.0444,"dy":0.0017,"dx":0.0017,"nx":28,"ny":28,"refTime":"2024-05-10T03:00:00:Z","depth":0,"parameterNumber":3,"parameterNumberName":"V-component_of_WINDS"},"data":[0,0,0,0,0,0,0,0,0,0,0,0,0,0,0,0,0,0,0,0,0,0,0,0,0,0,0,0,0,0,0,0,0,0,0,0,0,0,0,0,0,0,0,0,0,0,0,0,0,0,0,0,0,0,0,0,0,0,1.7157,1.7157,0,1.7112,1.7111,1.7111,1.7097,1.7098,1.7098,1.7098,1.7047,1.7046,1.7044,0,0,0,0,0,0,0,0,0,0,0,0,0,1.7229,1.7228,1.7157,1.7157,1.7156,1.7112,1.7111,1.711,1.7097,1.7098,1.7098,1.7098,1.7048,1.7046,1.7044,0,0,0,0,0,0,0,0,0,0,0,0,0,1.7192,1.7227,1.7157,1.7144,1.7143,1.7112,1.7111,1.711,1.7097,1.7098,1.7098,1.7098,1.7048,1.7046,1.7044,1.7021,0,0,1.7036,1.7035,0,0,0,0,0,0,0,0,1.7194,1.7189,1.7147,1.7145,1.7143,1.7111,1.7118,1.708,1.7097,1.7114,1.7098,1.7099,1.7068,1.7064,1.7054,1.7019,1.7017,1.7036,1.7035,1.7034,1.7033,0,0,0,0,0,0,0,1.7197,1.7191,1.7139,1.7146,1.7144,1.7139,1.7135,1.711,1.7089,1.7113,1.7112,1.7107,1.7067,1.7057,1.7053,1.7016,1.7036,1.7034,1.7033,1.7032,1.6957,1.6957,0,0,0,0,0,0,1.7202,1.7193,1.7141,1.7138,1.717,1.7138,1.7132,1.7121,1.709,1.7085,1.7107,1.7106,1.7061,1.7056,1.7051,1.7021,1.7034,1.7031,1.703,1.6958,1.6957,1.6956,0,0,0,0,0,0,1.7204,1.7197,1.7142,1.7165,1.7158,1.7136,1.7123,1.712,1.7109,1.7085,1.7081,1.71,1.7061,1.7054,1.7028,1.7019,1.703,1.7028,1.6958,1.6957,1.6957,1.6962,0,0,0,0,0,0,1.7206,1.7198,1.719,1.7165,1.7157,1.7122,1.7123,1.7118,1.7106,1.7105,1.7078,1.7074,1.706,1.7032,1.7026,1.7016,1.7026,1.6959,1.6958,1.6957,1.6962,1.6961,1.696,0,0,0,0,0,1.7208,1.7193,1.719,1.7184,1.7147,1.7122,1.7117,1.7103,1.7105,1.7096,1.708,1.7074,1.7021,1.703,1.7023,1.7012,1.6959,1.6958,1.6957,1.6963,1.6962,1.696,0,0,0,0,0,0,1.7217,1.719,1.7186,1.7163,1.7145,1.712,1.7108,1.7102,1.7082,1.7082,1.7065,1.7059,1.7034,1.702,1.703,1.6987,1.699,1.6987,1.6997,1.6995,1.6994,1.6998,1.7024,0,0,0,0,0,1.7217,1.72,1.7176,1.7158,1.7149,1.713,1.7119,1.711,1.709,1.7082,1.7064,1.7043,1.7022,1.7008,1.6987,1.6961,1.6953,1.6949,1.6949,1.6948,1.6945,1.6928,1.6926,1.6952,1.6952,1.6952,0,0,1.7215,1.7198,1.7188,1.7159,1.7144,1.7125,1.7124,1.7104,1.709,1.7078,1.7053,1.7039,1.7014,1.6988,1.6975,1.6976,1.6936,1.6946,1.6946,1.6944,1.6927,1.6924,1.6922,1.6951,1.6952,1.6952,0,0,1.7202,1.7188,1.7171,1.7156,1.7133,1.712,1.7116,1.7092,1.7082,1.7056,1.7047,1.7028,1.6992,1.6975,1.6961,1.6941,1.6933,1.6934,1.6928,1.6912,1.691,1.6908,1.6898,1.6895,1.6932,1.6932,1.6932,0,1.7203,1.7175,1.7162,1.7143,1.7129,1.7119,1.71,1.7086,1.7057,1.7047,1.7049,1.7002,1.6985,1.6953,1.6948,1.6938,1.6931,1.6937,1.6911,1.6909,1.6907,1.6898,1.6895,1.6932,1.6932,1.6932,1.6932,0,1.7176,1.7157,1.7145,1.7118,1.7104,1.7084,1.7067,1.7053,1.7045,1.7032,1.7004,1.6984,1.6958,1.695,1.6942,1.6916,1.6917,1.6915,1.6917,1.6905,1.6896,1.6892,1.6932,1.6932,1.6932,1.6932,0,0,1.7168,1.7133,1.7129,1.7116,1.709,1.7074,1.7053,1.7029,1.7016,1.6997,1.6978,1.6947,1.6945,1.6929,1.6919,1.6905,1.6887,1.6904,1.6903,1.69,1.6855,1.6855,1.6851,1.6883,1.6882,1.6881,1.6856,0,1.715,1.7115,1.7102,1.7072,1.7053,1.7042,1.7024,1.7004,1.6991,1.6971,1.6956,1.6934,1.6934,1.6924,1.691,1.6892,1.6877,1.6894,1.6862,1.6861,1.6868,1.6847,1.6848,1.6825,1.6853,1.6852,1.6852,0,1.7126,1.7106,1.7074,1.7049,1.704,1.7024,1.6999,1.6982,1.6959,1.695,1.6932,1.6923,1.6898,1.6903,1.6868,1.688,1.6866,1.6855,1.6854,1.6849,1.6855,1.684,1.6818,1.6814,1.6846,1.6847,1.6847,0,1.7121,1.7087,1.7063,1.7052,1.7022,1.701,1.6997,1.6975,1.696,1.6938,1.6928,1.6903,1.6889,1.6869,1.6852,1.6858,1.6818,1.6822,1.6808,1.6809,1.68,1.68,1.6773,1.6793,1.6793,1.6793,1.6794,0,1.7103,1.7083,1.706,1.7045,1.7022,1.7006,1.6983,1.6969,1.6949,1.693,1.6919,1.6901,1.688,1.6858,1.6845,1.6817,1.6811,1.6801,1.6798,1.6802,1.6803,1.6791,1.6792,1.6793,1.6793,1.6793,1.6793,0,1.7093,1.7077,1.705,1.7024,1.7016,1.7,1.6977,1.6961,1.6947,1.6922,1.6916,1.6893,1.6867,1.6848,1.6814,1.6805,1.6774,1.6771,1.6782,1.678,1.6767,1.6767,1.673,1.6723,1.675,1.675,1.675,0,1.7082,1.7067,1.7039,1.7025,1.7012,1.6991,1.6976,1.6959,1.6944,1.6916,1.6902,1.6876,1.6854,1.6812,1.6791,1.6765,1.676,1.6749,1.6756,1.6759,1.6757,1.6758,1.6755,1.6747,1.6747,1.6747,1.6747,0,1.7063,1.7056,1.7035,1.7011,1.6994,1.6974,1.6953,1.6943,1.6922,1.6905,1.6878,1.6861,1.6826,1.6799,1.677,1.6755,1.6746,1.6745,1.674,1.6743,1.6749,1.6743,1.6777,1.6745,1.6745,1.6746,1.6746,1.6746,1.7052,1.7037,1.7014,1.6991,1.6974,1.6955,1.6938,1.6921,1.6899,1.687,1.6862,1.6834,1.6809,1.6769,1.6753,1.6729,1.673,1.6723,1.6721,1.6719,1.6718,1.6754,1.6724,1.6724,1.6724,1.6724,1.6724,0,1.7031,1.7015,1.6994,1.6966,1.6947,1.6942,1.6919,1.6903,1.6879,1.6857,1.6835,1.6803,1.6776,1.6753,1.6725,1.671,1.6705,1.6703,1.6703,1.6699,1.6721,1.6727,1.6707,1.6707,1.6707,1.6707,1.6707,1.6707,1.7018,1.6991,1.6981,1.6945,1.6929,1.6903,1.6889,1.6871,1.6853,1.6818,1.6796,1.6782,1.6758,1.6728,1.6702,1.6696,1.6685,1.6683,1.6676,1.6696,1.6698,1.67,1.6705,1.6681,1.6681,1.6656,1.6655,1.6655]}]]